Regional Weather Roundup
Issued by NWS Little Rock, AR

Home | Current Version | Previous Version | Graphics & Text | Print | Product List | Glossary On
Versions: 1 2 3 4 5 6 7 8 9 10 11 12 13 14 15 16 17 18 19 20 21 22 23 24 25 26 27 28 29 30 31 32 33 34 35 36 37 38 39 40 41 42 43 44 45 46 47 48 49 50
000
ASUS44 KLZK 011505
RWRLZK

WEATHER ROUNDUP FOR ARKANSAS
NATIONAL WEATHER SERVICE LITTLE ROCK AR
1000 AM CDT MON SEP 01 2014

NOTE: "FAIR" INDICATES FEW OR NO CLOUDS BELOW 12,000 FEET WITH NO
SIGNIFICANT WEATHER AND/OR OBSTRUCTIONS TO VISIBILITY.

ARZ001-003-010-029-011600-
NORTHWEST ARKANSAS

CITY           SKY/WX    TMP DP  RH WIND       PRES   REMARKS
FAYETTEVILLE   CLOUDY    68  65  90 VRB5      30.04R
FORT SMITH     PTSUNNY   83  70  64 SE8       29.98S HX  87
HARRISON       CLOUDY    68  63  84 SE6       30.08R
BENTONVILLE    CLOUDY    66  63  88 E9        30.06S
ROGERS         LGT RAIN  65  62  90 NE8       30.08R
HIGHFILL       CLOUDY    66 N/A N/A NE9       30.05R
SPRINGDALE     CLOUDY    66  63  88 SE13      30.07R
$$

ARZ004-005-016-011600-
NORTH CENTRAL ARKANSAS

CITY           SKY/WX    TMP DP  RH WIND       PRES   REMARKS
BATESVILLE     PTSUNNY   82  72  69 SW13      30.03R HX  87
FLIPPIN        CLOUDY    72  63  73 N5        30.06R
MTN HOME       CLOUDY    72  65  78 NE5       30.05R
$$

ARZ040-041-011600-
WEST CENTRAL ARKANSAS

CITY           SKY/WX    TMP DP  RH WIND       PRES   REMARKS
MENA           CLOUDY    81  73  78 CALM      30.03S HX  85
MOUNT IDA      MOSUNNY   80  72  76 VRB3      30.01F
$$

ARZ009-017-025-026-028-011600-
NORTHEAST ARKANSAS

CITY           SKY/WX    TMP DP  RH WIND       PRES   REMARKS
CORNING          N/A     81  73  78 SW12      30.01R HX  85
JONESBORO      MOSUNNY   81  72  74 SW16      30.02R HX  85
NEWPORT        MOSUNNY   85  74  69 SW16      30.03S HX  92
WALNUT RIDGE   PTSUNNY   81  70  69 SW16      30.01R
BLYTHEVILLE    PTSUNNY   83  77  82 SW15G23   30.02F HX  92
$$

ARZ022-023-033-042-044-011600-
CENTRAL ARKANSAS

CITY           SKY/WX    TMP DP  RH WIND       PRES   REMARKS
LITTLE ROCK    PTSUNNY   80  71  74 SW10      30.04S
N LITTLE ROCK  PTSUNNY   80  74  81 SW10      30.04S
JACKSONVILLE   PTSUNNY   82  72  71 SW13      30.03S HX  87
SEARCY         MOSUNNY   83  75  76 MISG      30.03F HX  90
HOT SPRINGS    CLOUDY    81  72  74 SW3       30.03F HX  85
RUSSELLVILLE   PTSUNNY   82  71  69 VRB3      30.02R HX  86
CLINTON        CLOUDY    79  73  83 CALM      30.04R FOG
$$

ARZ036-011600-
EAST ARKANSAS

CITY           SKY/WX    TMP DP  RH WIND       PRES   REMARKS
WEST MEMPHIS   CLOUDY    82  77  84 SW7       30.03S HX  90
$$

ARZ050-053-066-070-073-011600-
SOUTHWEST ARKANSAS

CITY           SKY/WX    TMP DP  RH WIND       PRES   REMARKS
ARKADELPHIA    PTSUNNY   81  75  81 SW3       30.04R HX  87
CAMDEN         CLOUDY    81  73  78 S5        30.03R HX  85
TEXARKANA      CLOUDY    82  74  76 SW9       30.00R HX  88
EL DORADO      PTSUNNY   80  75  84 S8        30.02S HX  85
DE QUEEN       CLOUDY    80  74  81 W3        29.99R HX  85
$$

ARZ056-057-069-011600-
SOUTHEAST ARKANSAS

CITY           SKY/WX    TMP DP  RH WIND       PRES   REMARKS
PINE BLUFF     CLOUDY    77  73  87 SW7       30.04S
STUTTGART      CLOUDY    79  73  83 W8        30.06R
MONTICELLO     CLOUDY    79  75  87 SW10      30.04R

$$




USA.gov is the U.S. government's official web portal to all federal, state and local government web resources and services.